Location: Saint-Palais-sur-Mer
(45.6429°N, 1.0859°W)
Time: 23:32:28
(UTC+01:00)

Vanguard 1 - Pass Details

Date: 09 February 2026
Orbit: 653 x 3818 km, 34.2° (Epoch: 12 March)

Event Time Altitude Azimuth Distance (km) Brightness Sun altitude
Rises 20:23:45 0° 254° (WSW) 6,436 15.5 -21.6°
Reaches altitude 10° 20:27:29 10° 251° (WSW) 5,755 14.9 -22.3°
Maximum altitude 20:46:35 61° 178° (S) 4,059 13.0 -25.6°
Enters shadow 20:59:24 33° 116° (ESE) 5,150 13.1 -27.8°
